^^
Anthem North Phoenix Station Historical Data
 
Daily Summary for April 21, 2019 Units:  English    Metric   Both
Daily Weekly Monthly Yearly Custom
  Current: High: Low: Average:
Temperature: 65.9 °F 72.4 °F 65.4 °F 68.7 °F
Dew Point: 36.0 °F 36.1 °F 31.8 °F 33.9 °F
Humidity: 33% 33% 24% 28%
Wind Speed: 0.3mph 2.9mph 0.0mph 0.9mph
Wind Gust: 1.2mph 4.6mph - -
WindSSW - - SE
Pressure: 29.84 in 29.84 in 29.82 in -
Precipitation: 0.00 in      
Historical Graphs
 
 
Tabular Data for April 21, 2019
Time Temperature Dew Point Pressure Wind Wind Speed Wind Gust Humidity Rainfall Rate (Hourly)
00:04 72.4 °F 34.6 °F 29.82 in South 1.0 mph 1.2 mph 25% 0.00 in
00:09 72.2 °F 34.4 °F 29.82 in SSW 2.0 mph 3.5 mph 25% 0.00 in
00:14 72.1 °F 34.3 °F 29.82 in SE 2.3 mph 3.5 mph 25% 0.00 in
00:19 72.1 °F 34.3 °F 29.82 in SSE 1.4 mph 3.5 mph 25% 0.00 in
00:24 71.9 °F 34.1 °F 29.82 in SE 2.0 mph 4.0 mph 25% 0.00 in
00:29 72.1 °F 33.3 °F 29.82 in SE 2.6 mph 3.5 mph 24% 0.00 in
00:34 71.9 °F 33.1 °F 29.82 in SSE 2.9 mph 3.5 mph 24% 0.00 in
00:39 71.7 °F 34.0 °F 29.82 in SE 1.2 mph 3.5 mph 25% 0.00 in
00:44 71.5 °F 33.8 °F 29.83 in ESE 2.5 mph 3.5 mph 25% 0.00 in
00:49 71.4 °F 33.7 °F 29.83 in SE 1.0 mph 2.3 mph 25% 0.00 in
00:54 71.4 °F 32.7 °F 29.83 in Calm   2.3 mph 24% 0.00 in
00:59 71.2 °F 32.5 °F 29.83 in SE 0.2 mph 1.2 mph 24% 0.00 in
01:04 70.9 °F 32.3 °F 29.83 in ESE 0.5 mph 2.3 mph 24% 0.00 in
01:09 70.6 °F 32.0 °F 29.83 in SW 0.4 mph 1.2 mph 24% 0.00 in
01:14 70.6 °F 32.0 °F 29.83 in SE 0.2 mph 1.2 mph 24% 0.00 in
01:19 70.3 °F 31.8 °F 29.83 in Calm   1.0 mph 24% 0.00 in
01:24 69.9 °F 32.5 °F 29.83 in WSW 0.6 mph 2.3 mph 25% 0.00 in
01:29 69.7 °F 32.3 °F 29.83 in SSE 1.5 mph 2.0 mph 25% 0.00 in
01:34 69.9 °F 32.5 °F 29.83 in SE 0.7 mph 3.5 mph 25% 0.00 in
01:39 69.7 °F 32.3 °F 29.83 in Calm   1.2 mph 25% 0.00 in
01:44 69.1 °F 32.7 °F 29.83 in SE 0.1 mph 1.2 mph 26% 0.00 in
01:49 69.1 °F 31.8 °F 29.83 in ESE 1.0 mph 2.3 mph 25% 0.00 in
01:54 69.3 °F 32.9 °F 29.83 in SE 0.1 mph   26% 0.00 in
01:59 69.1 °F 32.7 °F 29.83 in Calm     26% 0.00 in
02:04 68.7 °F 32.4 °F 29.83 in Calm   1.2 mph 26% 0.00 in
02:09 68.1 °F 32.8 °F 29.83 in Calm     27% 0.00 in
02:14 67.4 °F 33.1 °F 29.83 in SE 1.1 mph 1.2 mph 28% 0.00 in
02:19 67.0 °F 33.7 °F 29.83 in ESE 0.5 mph 1.2 mph 29% 0.00 in
02:24 66.6 °F 34.2 °F 29.83 in East 0.4 mph 1.2 mph 30% 0.00 in
02:29 66.2 °F 34.7 °F 29.83 in Calm   1.0 mph 31% 0.00 in
02:34 65.8 °F 34.3 °F 29.83 in East 0.6 mph 1.2 mph 31% 0.00 in
02:39 65.6 °F 34.9 °F 29.83 in SSE 0.4 mph 1.2 mph 32% 0.00 in
02:44 65.4 °F 34.8 °F 29.82 in Calm   1.2 mph 32% 0.00 in
02:49 65.4 °F 34.8 °F 29.82 in ESE 0.5 mph 2.3 mph 32% 0.00 in
02:54 65.4 °F 34.8 °F 29.82 in ESE 0.7 mph 2.3 mph 32% 0.00 in
02:59 65.5 °F 35.6 °F 29.83 in SE 1.3 mph 3.0 mph 33% 0.00 in
03:04 65.6 °F 35.7 °F 29.83 in SE 0.2 mph 3.5 mph 33% 0.00 in
03:09 65.7 °F 35.0 °F 29.83 in SE 1.5 mph 2.3 mph 32% 0.00 in
03:14 65.9 °F 35.2 °F 29.83 in SE 1.6 mph 3.5 mph 32% 0.00 in
03:19 66.0 °F 35.3 °F 29.83 in SE 1.4 mph 3.5 mph 32% 0.00 in
03:24 65.9 °F 36.0 °F 29.83 in SE 1.1 mph 2.3 mph 33% 0.00 in
03:29 66.0 °F 36.1 °F 29.83 in SSE 0.4 mph 2.3 mph 33% 0.00 in
03:34 65.9 °F 36.0 °F 29.84 in SE 2.1 mph 3.5 mph 33% 0.00 in
03:39 66.0 °F 36.1 °F 29.84 in SSE 1.2 mph 4.6 mph 33% 0.00 in
03:44 65.9 °F 36.0 °F 29.84 in SSW 0.3 mph 1.2 mph 33% 0.00 in
Anthen North Phoenix Weather
Compliments of Weather Underground - 1.5 mb